Time,TemperatureF,DewpointF,PressureIn,WindDirection,WindDirectionDegrees,WindSpeedMPH,WindSpeedGustMPH,Humidity,HourlyPrecipIn,Conditions,Clouds,dailyrainin,SoftwareType,DateUTC
2013-05-21 00:00:00,69.4,65.7,29.92,ESE,113,0.0,1.0,88,0.00,,,0.00,Wunderground v.1.13,2013-05-21 04:00:00,
2013-05-21 00:05:00,69.4,65.7,29.92,ESE,113,0.0,1.0,88,0.00,,,0.00,Wunderground v.1.13,2013-05-21 04:05:00,
2013-05-21 00:10:00,69.3,65.9,29.92,ESE,113,0.0,1.0,89,0.00,,,0.00,Wunderground v.1.13,2013-05-21 04:10:00,
2013-05-21 00:15:00,69.2,65.8,29.92,ESE,113,0.0,1.0,89,0.00,,,0.00,Wunderground v.1.13,2013-05-21 04:15:00,
2013-05-21 00:20:00,69.0,65.6,29.91,N/A,-737280,0.0,0.0,89,0.00,,,0.00,Wunderground v.1.13,2013-05-21 04:20:00,
2013-05-21 00:30:00,68.8,65.4,29.92,ESE,113,0.0,1.0,89,0.00,,,0.00,Wunderground v.1.13,2013-05-21 04:30:00,
2013-05-21 00:35:00,68.6,65.2,29.91,ESE,113,0.0,1.0,89,0.00,,,0.00,Wunderground v.1.13,2013-05-21 04:35:00,
2013-05-21 00:40:00,68.4,65.4,29.91,N/A,-737280,0.0,0.0,90,0.00,,,0.00,Wunderground v.1.13,2013-05-21 04:40:00,
2013-05-21 00:45:00,68.3,65.3,29.91,ESE,113,0.0,2.0,90,0.00,,,0.00,Wunderground v.1.13,2013-05-21 04:45:00,
2013-05-21 00:50:00,68.1,65.1,29.91,N/A,-737280,0.0,0.0,90,0.00,,,0.00,Wunderground v.1.13,2013-05-21 04:50:00,
2013-05-21 00:55:00,68.1,65.1,29.91,N/A,-737280,0.0,0.0,90,0.00,,,0.00,Wunderground v.1.13,2013-05-21 04:55:00,
2013-05-21 01:00:00,68.0,65.0,29.91,ESE,113,0.0,1.0,90,0.00,,,0.00,Wunderground v.1.13,2013-05-21 05:00:00,
2013-05-21 01:05:00,67.9,64.9,29.91,N/A,-737280,0.0,0.0,90,0.00,,,0.00,Wunderground v.1.13,2013-05-21 05:05:00,
2013-05-21 01:10:00,67.7,64.7,29.91,ESE,113,0.0,1.0,90,0.00,,,0.00,Wunderground v.1.13,2013-05-21 05:10:00,
2013-05-21 01:15:00,67.6,64.9,29.91,ESE,113,0.0,1.0,91,0.00,,,0.00,Wunderground v.1.13,2013-05-21 05:15:00,
2013-05-21 01:20:00,67.6,64.9,29.91,N/A,-737280,0.0,0.0,91,0.00,,,0.00,Wunderground v.1.13,2013-05-21 05:20:00,
2013-05-21 01:25:00,67.5,64.8,29.91,ESE,113,0.0,1.0,91,0.00,,,0.00,Wunderground v.1.13,2013-05-21 05:25:00,
2013-05-21 01:30:00,67.4,64.7,29.91,ESE,113,0.0,1.0,91,0.00,,,0.00,Wunderground v.1.13,2013-05-21 05:30:00,
2013-05-21 01:35:00,67.2,64.5,29.90,ESE,113,0.0,1.0,91,0.00,,,0.00,Wunderground v.1.13,2013-05-21 05:35:00,
2013-05-21 01:40:00,67.0,64.3,29.90,N/A,-737280,0.0,0.0,91,0.00,,,0.00,Wunderground v.1.13,2013-05-21 05:40:00,
2013-05-21 01:45:00,66.9,64.2,29.90,N/A,-737280,0.0,0.0,91,0.00,,,0.00,Wunderground v.1.13,2013-05-21 05:45:00,
2013-05-21 01:50:00,66.9,64.2,29.90,N/A,-737280,0.0,0.0,91,0.00,,,0.00,Wunderground v.1.13,2013-05-21 05:50:00,
2013-05-21 01:55:00,66.8,64.1,29.90,N/A,-737280,0.0,0.0,91,0.00,,,0.00,Wunderground v.1.13,2013-05-21 05:55:00,
2013-05-21 02:00:00,66.7,64.0,29.90,N/A,-737280,0.0,0.0,91,0.00,,,0.00,Wunderground v.1.13,2013-05-21 06:00:00,
2013-05-21 02:05:00,66.6,64.2,29.90,ESE,113,0.0,1.0,92,0.00,,,0.00,Wunderground v.1.13,2013-05-21 06:05:00,
2013-05-21 02:10:00,66.5,64.1,29.90,N/A,-737280,0.0,0.0,92,0.00,,,0.00,Wunderground v.1.13,2013-05-21 06:10:00,
2013-05-21 02:15:00,66.4,64.0,29.90,ESE,113,0.0,1.0,92,0.00,,,0.00,Wunderground v.1.13,2013-05-21 06:15:00,
2013-05-21 02:20:00,66.4,64.0,29.90,N/A,-737280,0.0,0.0,92,0.00,,,0.00,Wunderground v.1.13,2013-05-21 06:20:00,
2013-05-21 02:25:00,66.3,63.9,29.90,N/A,-737280,0.0,0.0,92,0.00,,,0.00,Wunderground v.1.13,2013-05-21 06:25:00,
2013-05-21 02:30:00,66.2,63.8,29.90,N/A,-737280,0.0,0.0,92,0.00,,,0.00,Wunderground v.1.13,2013-05-21 06:30:00,
2013-05-21 02:35:00,66.1,63.7,29.90,N/A,-737280,0.0,0.0,92,0.00,,,0.00,Wunderground v.1.13,2013-05-21 06:35:00,
2013-05-21 02:40:00,66.1,63.7,29.90,N/A,-737280,0.0,0.0,92,0.00,,,0.00,Wunderground v.1.13,2013-05-21 06:40:00,
2013-05-21 02:45:00,66.0,63.6,29.90,N/A,-737280,0.0,0.0,92,0.00,,,0.00,Wunderground v.1.13,2013-05-21 06:45:00,
2013-05-21 02:50:00,66.0,63.6,29.90,N/A,-737280,0.0,0.0,92,0.00,,,0.00,Wunderground v.1.13,2013-05-21 06:50:00,
2013-05-21 02:55:00,65.9,63.5,29.90,N/A,-737280,0.0,0.0,92,0.00,,,0.00,Wunderground v.1.13,2013-05-21 06:55:00,
2013-05-21 03:00:00,65.8,63.4,29.90,N/A,-737280,0.0,0.0,92,0.00,,,0.00,Wunderground v.1.13,2013-05-21 07:00:00,
2013-05-21 03:05:00,65.8,63.4,29.90,N/A,-737280,0.0,0.0,92,0.00,,,0.00,Wunderground v.1.13,2013-05-21 07:05:00,
2013-05-21 03:10:00,65.8,63.4,29.90,N/A,-737280,0.0,0.0,92,0.00,,,0.00,Wunderground v.1.13,2013-05-21 07:10:00,
2013-05-21 03:15:00,65.7,63.3,29.91,ESE,113,0.0,1.0,92,0.00,,,0.00,Wunderground v.1.13,2013-05-21 07:15:00,
2013-05-21 03:20:00,65.6,63.2,29.91,N/A,-737280,0.0,0.0,92,0.00,,,0.00,Wunderground v.1.13,2013-05-21 07:20:00,
2013-05-21 03:25:00,65.6,63.2,29.91,N/A,-737280,0.0,0.0,92,0.00,,,0.00,Wunderground v.1.13,2013-05-21 07:25:00,
2013-05-21 03:30:00,65.4,63.0,29.91,N/A,-737280,0.0,0.0,92,0.00,,,0.00,Wunderground v.1.13,2013-05-21 07:30:00,
2013-05-21 03:35:00,65.3,62.9,29.91,N/A,-737280,0.0,0.0,92,0.00,,,0.00,Wunderground v.1.13,2013-05-21 07:35:00,
2013-05-21 03:40:00,65.2,62.8,29.92,N/A,-737280,0.0,0.0,92,0.00,,,0.00,Wunderground v.1.13,2013-05-21 07:40:00,
2013-05-21 03:45:00,65.0,62.6,29.91,N/A,-737280,0.0,0.0,92,0.00,,,0.00,Wunderground v.1.13,2013-05-21 07:45:00,
2013-05-21 03:50:00,64.9,62.5,29.92,N/A,-737280,0.0,0.0,92,0.00,,,0.00,Wunderground v.1.13,2013-05-21 07:50:00,
2013-05-21 03:55:00,64.7,62.3,29.92,N/A,-737280,0.0,0.0,92,0.00,,,0.00,Wunderground v.1.13,2013-05-21 07:55:00,
2013-05-21 04:00:00,64.6,62.5,29.91,N/A,-737280,0.0,0.0,93,0.00,,,0.00,Wunderground v.1.13,2013-05-21 08:00:00,
2013-05-21 04:05:00,64.5,62.4,29.91,N/A,-737280,0.0,0.0,93,0.00,,,0.00,Wunderground v.1.13,2013-05-21 08:05:00,
2013-05-21 04:10:00,64.5,62.4,29.92,N/A,-737280,0.0,0.0,93,0.00,,,0.00,Wunderground v.1.13,2013-05-21 08:10:00,
2013-05-21 04:15:00,64.5,62.4,29.92,N/A,-737280,0.0,0.0,93,0.00,,,0.00,Wunderground v.1.13,2013-05-21 08:15:00,
2013-05-21 04:20:00,64.5,62.4,29.92,N/A,-737280,0.0,0.0,93,0.00,,,0.00,Wunderground v.1.13,2013-05-21 08:20:00,
2013-05-21 04:25:00,64.5,62.4,29.92,N/A,-737280,0.0,0.0,93,0.00,,,0.00,Wunderground v.1.13,2013-05-21 08:25:00,
2013-05-21 04:30:00,64.5,62.4,29.91,N/A,-737280,0.0,0.0,93,0.00,,,0.00,Wunderground v.1.13,2013-05-21 08:30:00,
2013-05-21 04:35:00,64.4,62.3,29.91,N/A,-737280,0.0,0.0,93,0.00,,,0.00,Wunderground v.1.13,2013-05-21 08:35:00,
2013-05-21 04:40:00,64.3,62.2,29.92,N/A,-737280,0.0,0.0,93,0.00,,,0.00,Wunderground v.1.13,2013-05-21 08:40:00,
2013-05-21 04:45:00,64.3,62.2,29.91,N/A,-737280,0.0,0.0,93,0.00,,,0.00,Wunderground v.1.13,2013-05-21 08:45:00,
2013-05-21 04:50:00,64.3,62.2,29.91,ESE,113,0.0,1.0,93,0.00,,,0.00,Wunderground v.1.13,2013-05-21 08:50:00,
2013-05-21 04:55:00,64.0,61.9,29.92,ESE,113,0.0,1.0,93,0.00,,,0.00,Wunderground v.1.13,2013-05-21 08:55:00,
2013-05-21 05:00:00,63.8,61.7,29.92,N/A,-737280,0.0,0.0,93,0.00,,,0.00,Wunderground v.1.13,2013-05-21 09:00:00,
2013-05-21 05:05:00,63.8,61.7,29.91,N/A,-737280,0.0,0.0,93,0.00,,,0.00,Wunderground v.1.13,2013-05-21 09:05:00,
2013-05-21 05:10:00,63.6,61.5,29.91,N/A,-737280,0.0,0.0,93,0.00,,,0.00,Wunderground v.1.13,2013-05-21 09:10:00,
2013-05-21 05:15:00,63.5,61.4,29.91,N/A,-737280,0.0,0.0,93,0.00,,,0.00,Wunderground v.1.13,2013-05-21 09:15:00,
2013-05-21 05:20:00,63.5,61.4,29.92,ESE,113,0.0,1.0,93,0.00,,,0.00,Wunderground v.1.13,2013-05-21 09:20:00,
2013-05-21 05:25:00,63.4,61.3,29.92,ESE,113,0.0,1.0,93,0.00,,,0.00,Wunderground v.1.13,2013-05-21 09:25:00,
2013-05-21 05:30:00,63.5,61.4,29.92,ESE,113,0.0,1.0,93,0.00,,,0.00,Wunderground v.1.13,2013-05-21 09:30:00,
2013-05-21 05:35:00,63.5,61.7,29.92,N/A,-737280,0.0,0.0,94,0.00,,,0.00,Wunderground v.1.13,2013-05-21 09:35:00,
2013-05-21 05:40:00,63.4,61.6,29.92,N/A,-737280,0.0,0.0,94,0.00,,,0.00,Wunderground v.1.13,2013-05-21 09:40:00,
2013-05-21 05:45:00,63.3,61.5,29.92,ESE,113,0.0,1.0,94,0.00,,,0.00,Wunderground v.1.13,2013-05-21 09:45:00,
2013-05-21 05:50:00,63.3,61.5,29.92,N/A,-737280,0.0,0.0,94,0.00,,,0.00,Wunderground v.1.13,2013-05-21 09:50:00,
2013-05-21 05:55:00,63.3,61.5,29.93,N/A,-737280,0.0,0.0,94,0.00,,,0.00,Wunderground v.1.13,2013-05-21 09:55:00,
2013-05-21 06:00:00,63.2,61.4,29.93,N/A,-737280,0.0,0.0,94,0.00,,,0.00,Wunderground v.1.13,2013-05-21 10:00:00,
2013-05-21 06:05:00,63.2,61.1,29.93,N/A,-737280,0.0,0.0,93,0.00,,,0.00,Wunderground v.1.13,2013-05-21 10:05:00,
2013-05-21 06:10:00,63.1,61.0,29.93,N/A,-737280,0.0,0.0,93,0.00,,,0.00,Wunderground v.1.13,2013-05-21 10:10:00,
2013-05-21 06:15:00,63.1,61.3,29.93,N/A,-737280,0.0,0.0,94,0.00,,,0.00,Wunderground v.1.13,2013-05-21 10:15:00,
2013-05-21 06:20:00,63.1,61.3,29.94,N/A,-737280,0.0,0.0,94,0.00,,,0.00,Wunderground v.1.13,2013-05-21 10:20:00,
2013-05-21 06:25:00,63.0,61.2,29.93,ESE,113,0.0,1.0,94,0.00,,,0.00,Wunderground v.1.13,2013-05-21 10:25:00,
2013-05-21 06:30:00,62.9,61.1,29.93,N/A,-737280,0.0,0.0,94,0.00,,,0.00,Wunderground v.1.13,2013-05-21 10:30:00,
2013-05-21 06:35:00,62.9,61.1,29.93,N/A,-737280,0.0,0.0,94,0.00,,,0.00,Wunderground v.1.13,2013-05-21 10:35:00,
2013-05-21 06:40:00,63.0,61.2,29.93,N/A,-737280,0.0,0.0,94,0.00,,,0.00,Wunderground v.1.13,2013-05-21 10:40:00,
2013-05-21 06:45:00,63.0,61.2,29.93,N/A,-737280,0.0,0.0,94,0.00,,,0.00,Wunderground v.1.13,2013-05-21 10:45:00,
2013-05-21 06:50:00,63.2,61.4,29.93,ESE,113,0.0,1.0,94,0.00,,,0.00,Wunderground v.1.13,2013-05-21 10:50:00,
2013-05-21 06:55:00,63.3,61.5,29.93,N/A,-737280,0.0,0.0,94,0.00,,,0.00,Wunderground v.1.13,2013-05-21 10:55:00,
2013-05-21 07:00:00,63.4,61.6,29.93,N/A,-737280,0.0,0.0,94,0.00,,,0.00,Wunderground v.1.13,2013-05-21 11:00:00,
2013-05-21 07:05:00,63.5,61.7,29.93,ESE,113,0.0,1.0,94,0.00,,,0.00,Wunderground v.1.13,2013-05-21 11:05:00,
2013-05-21 07:10:00,63.5,61.7,29.93,N/A,-737280,0.0,0.0,94,0.00,,,0.00,Wunderground v.1.13,2013-05-21 11:10:00,
2013-05-21 07:15:00,63.6,61.8,29.93,ESE,113,0.0,1.0,94,0.00,,,0.00,Wunderground v.1.13,2013-05-21 11:15:00,
2013-05-21 07:20:00,64.1,62.6,29.93,ESE,113,0.0,1.0,95,0.00,,,0.00,Wunderground v.1.13,2013-05-21 11:20:00,
2013-05-21 07:25:00,64.3,62.8,29.93,ESE,113,0.0,1.0,95,0.00,,,0.00,Wunderground v.1.13,2013-05-21 11:25:00,
2013-05-21 07:30:00,64.3,62.8,29.93,ESE,113,0.0,1.0,95,0.00,,,0.00,Wunderground v.1.13,2013-05-21 11:30:00,
2013-05-21 07:35:00,64.4,62.9,29.93,N/A,-737280,0.0,0.0,95,0.00,,,0.00,Wunderground v.1.13,2013-05-21 11:35:00,
2013-05-21 07:40:00,65.1,63.6,29.93,ESE,113,0.0,1.0,95,0.00,,,0.00,Wunderground v.1.13,2013-05-21 11:40:00,
2013-05-21 07:45:00,65.7,64.2,29.93,ESE,113,0.0,1.0,95,0.00,,,0.00,Wunderground v.1.13,2013-05-21 11:45:00,
2013-05-21 07:50:00,66.1,64.6,29.93,ESE,113,0.0,1.0,95,0.00,,,0.00,Wunderground v.1.13,2013-05-21 11:50:00,
2013-05-21 07:55:00,66.6,65.1,29.93,ESE,113,0.0,1.0,95,0.00,,,0.00,Wunderground v.1.13,2013-05-21 11:55:00,
2013-05-21 08:00:00,66.9,65.7,29.93,N/A,-737280,0.0,0.0,96,0.00,,,0.00,Wunderground v.1.13,2013-05-21 12:00:00,
2013-05-21 08:05:00,67.2,65.7,29.93,ESE,113,0.0,1.0,95,0.00,,,0.00,Wunderground v.1.13,2013-05-21 12:05:00,
2013-05-21 08:10:00,67.5,66.0,29.93,ESE,113,0.0,1.0,95,0.00,,,0.00,Wunderground v.1.13,2013-05-21 12:10:00,
2013-05-21 08:15:00,67.8,66.6,29.93,ESE,113,0.0,1.0,96,0.00,,,0.00,Wunderground v.1.13,2013-05-21 12:15:00,
2013-05-21 08:20:00,68.3,67.1,29.93,ESE,113,0.0,1.0,96,0.00,,,0.00,Wunderground v.1.13,2013-05-21 12:20:00,
2013-05-21 08:25:00,68.5,67.3,29.93,N/A,-737280,0.0,0.0,96,0.00,,,0.00,Wunderground v.1.13,2013-05-21 12:25:00,
2013-05-21 08:30:00,68.8,67.6,29.93,ESE,113,0.0,1.0,96,0.00,,,0.00,Wunderground v.1.13,2013-05-21 12:30:00,
2013-05-21 08:35:00,69.2,68.0,29.93,ESE,113,0.0,1.0,96,0.00,,,0.00,Wunderground v.1.13,2013-05-21 12:35:00,
2013-05-21 08:40:00,69.9,68.7,29.93,ESE,113,0.0,1.0,96,0.00,,,0.00,Wunderground v.1.13,2013-05-21 12:40:00,
2013-05-21 08:45:00,70.3,69.1,29.93,ESE,113,0.0,3.0,96,0.00,,,0.00,Wunderground v.1.13,2013-05-21 12:45:00,
2013-05-21 08:50:00,70.8,69.3,29.93,ESE,113,0.0,3.0,95,0.00,,,0.00,Wunderground v.1.13,2013-05-21 12:50:00,
2013-05-21 08:55:00,71.2,69.1,29.93,SE,135,1.0,2.0,93,0.00,,,0.00,Wunderground v.1.13,2013-05-21 12:55:00,
2013-05-21 09:00:00,72.0,69.2,29.93,SE,135,0.0,2.0,91,0.00,,,0.00,Wunderground v.1.13,2013-05-21 13:00:00,
2013-05-21 09:05:00,72.4,69.6,29.92,SE,135,0.0,1.0,91,0.00,,,0.00,Wunderground v.1.13,2013-05-21 13:05:00,
2013-05-21 09:10:00,73.0,70.5,29.92,SE,135,0.0,1.0,92,0.00,,,0.00,Wunderground v.1.13,2013-05-21 13:10:00,
2013-05-21 09:15:00,73.9,70.1,29.92,SSE,158,1.0,4.0,88,0.00,,,0.00,Wunderground v.1.13,2013-05-21 13:15:00,
2013-05-21 09:20:00,74.4,69.9,29.92,SSE,158,1.0,3.0,86,0.00,,,0.00,Wunderground v.1.13,2013-05-21 13:20:00,
2013-05-21 09:25:00,74.9,69.7,29.92,SE,135,1.0,4.0,84,0.00,,,0.00,Wunderground v.1.13,2013-05-21 13:25:00,
2013-05-21 09:30:00,75.5,70.3,29.92,SE,135,1.0,2.0,84,0.00,,,0.00,Wunderground v.1.13,2013-05-21 13:30:00,
2013-05-21 09:35:00,76.2,71.0,29.92,SE,135,0.0,1.0,84,0.00,,,0.00,Wunderground v.1.13,2013-05-21 13:35:00,
2013-05-21 09:40:00,76.4,70.5,29.92,SE,135,0.0,2.0,82,0.00,,,0.00,Wunderground v.1.13,2013-05-21 13:40:00,
2013-05-21 09:45:00,76.3,70.4,29.92,SE,135,2.0,5.0,82,0.00,,,0.00,Wunderground v.1.13,2013-05-21 13:45:00,
2013-05-21 09:50:00,76.5,70.6,29.92,WSW,248,1.0,4.0,82,0.00,,,0.00,Wunderground v.1.13,2013-05-21 13:50:00,
2013-05-21 09:55:00,76.7,70.4,29.92,SW,225,3.0,7.0,81,0.00,,,0.00,Wunderground v.1.13,2013-05-21 13:55:00,
2013-05-21 10:00:00,76.9,70.6,29.91,South,180,1.0,6.0,81,0.00,,,0.00,Wunderground v.1.13,2013-05-21 14:00:00,
2013-05-21 10:05:00,77.0,70.7,29.92,WNW,293,2.0,6.0,81,0.00,,,0.00,Wunderground v.1.13,2013-05-21 14:05:00,
2013-05-21 10:10:00,77.2,70.2,29.92,SE,135,2.0,12.0,79,0.00,,,0.00,Wunderground v.1.13,2013-05-21 14:10:00,
2013-05-21 10:15:00,76.9,69.9,29.91,SE,135,4.0,12.0,79,0.00,,,0.00,Wunderground v.1.13,2013-05-21 14:15:00,
2013-05-21 10:20:00,77.1,70.1,29.91,WNW,293,3.0,6.0,79,0.00,,,0.00,Wunderground v.1.13,2013-05-21 14:20:00,
2013-05-21 10:25:00,77.4,70.4,29.91,SE,135,3.0,7.0,79,0.00,,,0.00,Wunderground v.1.13,2013-05-21 14:25:00,
2013-05-21 10:30:00,77.6,70.9,29.91,WSW,248,2.0,6.0,80,0.00,,,0.00,Wunderground v.1.13,2013-05-21 14:30:00,
2013-05-21 10:35:00,78.0,70.6,29.91,SSE,158,1.0,6.0,78,0.00,,,0.00,Wunderground v.1.13,2013-05-21 14:35:00,
2013-05-21 10:40:00,78.2,70.4,29.91,SW,225,2.0,9.0,77,0.00,,,0.00,Wunderground v.1.13,2013-05-21 14:40:00,
2013-05-21 10:45:00,78.2,70.4,29.91,SE,135,3.0,7.0,77,0.00,,,0.00,Wunderground v.1.13,2013-05-21 14:45:00,
2013-05-21 10:50:00,78.4,70.6,29.91,SE,135,3.0,7.0,77,0.00,,,0.00,Wunderground v.1.13,2013-05-21 14:50:00,
2013-05-21 10:55:00,78.7,70.9,29.90,SSE,158,2.0,8.0,77,0.00,,,0.00,Wunderground v.1.13,2013-05-21 14:55:00,
2013-05-21 11:05:00,79.4,71.2,29.90,WSW,248,2.0,7.0,76,0.00,,,0.00,Wunderground v.1.13,2013-05-21 15:05:00,
2013-05-21 11:10:00,79.7,71.5,29.90,WSW,248,3.0,7.0,76,0.00,,,0.00,Wunderground v.1.13,2013-05-21 15:10:00,
2013-05-21 11:25:00,80.5,71.0,29.90,WNW,293,2.0,7.0,73,0.00,,,0.00,Wunderground v.1.13,2013-05-21 15:25:00,
2013-05-21 11:30:00,80.7,71.6,29.89,SW,225,1.0,4.0,74,0.00,,,0.00,Wunderground v.1.13,2013-05-21 15:30:00,
2013-05-21 11:35:00,81.1,72.4,29.89,SSE,158,2.0,6.0,75,0.00,,,0.00,Wunderground v.1.13,2013-05-21 15:35:00,
2013-05-21 11:40:00,81.5,72.8,29.88,SSW,203,2.0,5.0,75,0.00,,,0.00,Wunderground v.1.13,2013-05-21 15:40:00,
2013-05-21 11:45:00,81.8,72.7,29.88,SSW,203,3.0,6.0,74,0.00,,,0.00,Wunderground v.1.13,2013-05-21 15:45:00,
2013-05-21 11:50:00,82.0,72.9,29.88,SW,225,2.0,6.0,74,0.00,,,0.00,Wunderground v.1.13,2013-05-21 15:50:00,
2013-05-21 11:55:00,82.4,72.5,29.89,SW,225,3.0,7.0,72,0.00,,,0.00,Wunderground v.1.13,2013-05-21 15:55:00,
2013-05-21 12:00:00,81.9,72.0,29.88,SE,135,3.0,8.0,72,0.00,,,0.00,Wunderground v.1.13,2013-05-21 16:00:00,
2013-05-21 12:05:00,81.6,71.7,29.89,SE,135,3.0,7.0,72,0.00,,,0.00,Wunderground v.1.13,2013-05-21 16:05:00,
2013-05-21 12:10:00,81.8,71.5,29.89,WSW,248,4.0,9.0,71,0.00,,,0.00,Wunderground v.1.13,2013-05-21 16:10:00,
2013-05-21 12:15:00,82.0,71.7,29.89,SSW,203,4.0,10.0,71,0.00,,,0.00,Wunderground v.1.13,2013-05-21 16:15:00,
2013-05-21 12:20:00,82.3,71.5,29.89,SE,135,3.0,11.0,70,0.00,,,0.00,Wunderground v.1.13,2013-05-21 16:20:00,
2013-05-21 12:25:00,82.7,71.9,29.89,SE,135,4.0,10.0,70,0.00,,,0.00,Wunderground v.1.13,2013-05-21 16:25:00,
2013-05-21 12:30:00,83.2,71.5,29.89,WSW,248,2.0,5.0,68,0.00,,,0.00,Wunderground v.1.13,2013-05-21 16:30:00,
2013-05-21 12:35:00,83.4,72.2,29.89,WSW,248,2.0,5.0,69,0.00,,,0.00,Wunderground v.1.13,2013-05-21 16:35:00,
2013-05-21 12:40:00,83.3,71.2,29.88,SSW,203,2.0,7.0,67,0.00,,,0.00,Wunderground v.1.13,2013-05-21 16:40:00,
2013-05-21 12:45:00,83.3,72.1,29.88,SSW,203,1.0,4.0,69,0.00,,,0.00,Wunderground v.1.13,2013-05-21 16:45:00,
2013-05-21 12:50:00,83.4,71.3,29.88,West,270,3.0,11.0,67,0.00,,,0.00,Wunderground v.1.13,2013-05-21 16:50:00,
2013-05-21 12:55:00,83.1,71.4,29.88,SW,225,4.0,9.0,68,0.00,,,0.00,Wunderground v.1.13,2013-05-21 16:55:00,
2013-05-21 13:00:00,83.2,72.0,29.88,WNW,293,2.0,8.0,69,0.00,,,0.00,Wunderground v.1.13,2013-05-21 17:00:00,
2013-05-21 13:05:00,83.6,71.9,29.88,West,270,3.0,7.0,68,0.00,,,0.00,Wunderground v.1.13,2013-05-21 17:05:00,
2013-05-21 13:10:00,83.7,72.4,29.88,SSW,203,4.0,8.0,69,0.00,,,0.00,Wunderground v.1.13,2013-05-21 17:10:00,
2013-05-21 13:15:00,83.8,71.7,29.87,SE,135,4.0,9.0,67,0.00,,,0.00,Wunderground v.1.13,2013-05-21 17:15:00,
2013-05-21 13:20:00,83.7,70.7,29.87,SSW,203,4.0,13.0,65,0.00,,,0.00,Wunderground v.1.13,2013-05-21 17:20:00,
2013-05-21 13:25:00,83.7,71.1,29.86,West,270,3.0,9.0,66,0.00,,,0.00,Wunderground v.1.13,2013-05-21 17:25:00,
2013-05-21 13:30:00,83.9,70.9,29.86,West,270,3.0,11.0,65,0.00,,,0.00,Wunderground v.1.13,2013-05-21 17:30:00,
2013-05-21 13:35:00,83.9,70.9,29.86,SW,225,3.0,10.0,65,0.00,,,0.00,Wunderground v.1.13,2013-05-21 17:35:00,
2013-05-21 13:40:00,84.1,70.6,29.86,WSW,248,4.0,9.0,64,0.00,,,0.00,Wunderground v.1.13,2013-05-21 17:40:00,
2013-05-21 13:45:00,84.4,71.3,29.86,West,270,3.0,11.0,65,0.00,,,0.00,Wunderground v.1.13,2013-05-21 17:45:00,
2013-05-21 13:50:00,84.6,71.5,29.86,SE,135,3.0,9.0,65,0.00,,,0.00,Wunderground v.1.13,2013-05-21 17:50:00,
2013-05-21 13:55:00,84.7,71.2,29.86,SE,135,3.0,11.0,64,0.00,,,0.00,Wunderground v.1.13,2013-05-21 17:55:00,
2013-05-21 14:00:00,85.0,71.0,29.86,WSW,248,3.0,10.0,63,0.00,,,0.00,Wunderground v.1.13,2013-05-21 18:00:00,
2013-05-21 14:05:00,85.5,71.0,29.85,West,270,3.0,6.0,62,0.00,,,0.00,Wunderground v.1.13,2013-05-21 18:05:00,
2013-05-21 14:10:00,85.5,71.0,29.86,SE,135,4.0,12.0,62,0.00,,,0.00,Wunderground v.1.13,2013-05-21 18:10:00,
2013-05-21 14:15:00,85.3,71.3,29.86,SE,135,3.0,9.0,63,0.00,,,0.00,Wunderground v.1.13,2013-05-21 18:15:00,
2013-05-21 14:20:00,84.9,70.9,29.86,SE,135,4.0,14.0,63,0.00,,,0.00,Wunderground v.1.13,2013-05-21 18:20:00,
2013-05-21 14:25:00,84.9,71.4,29.85,South,180,4.0,14.0,64,0.00,,,0.00,Wunderground v.1.13,2013-05-21 18:25:00,
2013-05-21 14:30:00,84.8,70.3,29.85,SE,135,5.0,11.0,62,0.00,,,0.00,Wunderground v.1.13,2013-05-21 18:30:00,
2013-05-21 14:35:00,84.9,70.9,29.85,South,180,2.0,8.0,63,0.00,,,0.00,Wunderground v.1.13,2013-05-21 18:35:00,
2013-05-21 14:40:00,84.8,70.3,29.85,SSW,203,4.0,9.0,62,0.00,,,0.00,Wunderground v.1.13,2013-05-21 18:40:00,
2013-05-21 14:45:00,84.9,70.4,29.85,South,180,2.0,8.0,62,0.00,,,0.00,Wunderground v.1.13,2013-05-21 18:45:00,
2013-05-21 14:50:00,85.2,70.2,29.84,WSW,248,3.0,10.0,61,0.00,,,0.00,Wunderground v.1.13,2013-05-21 18:50:00,
2013-05-21 14:55:00,85.5,70.5,29.84,SSW,203,4.0,11.0,61,0.00,,,0.00,Wunderground v.1.13,2013-05-21 18:55:00,
2013-05-21 15:00:00,85.6,70.6,29.84,SW,225,4.0,13.0,61,0.00,,,0.00,Wunderground v.1.13,2013-05-21 19:00:00,
2013-05-21 15:05:00,85.1,70.6,29.83,SW,225,4.0,7.0,62,0.00,,,0.00,Wunderground v.1.13,2013-05-21 19:05:00,
2013-05-21 15:10:00,85.2,70.7,29.83,SSW,203,3.0,7.0,62,0.00,,,0.00,Wunderground v.1.13,2013-05-21 19:10:00,
2013-05-21 15:15:00,85.8,70.8,29.83,SW,225,4.0,13.0,61,0.00,,,0.00,Wunderground v.1.13,2013-05-21 19:15:00,
2013-05-21 15:20:00,86.4,71.4,29.83,WSW,248,4.0,9.0,61,0.00,,,0.00,Wunderground v.1.13,2013-05-21 19:20:00,
2013-05-21 15:25:00,86.5,71.5,29.83,SW,225,3.0,9.0,61,0.00,,,0.00,Wunderground v.1.13,2013-05-21 19:25:00,
2013-05-21 15:30:00,86.0,70.5,29.83,WSW,248,3.0,9.0,60,0.00,,,0.00,Wunderground v.1.13,2013-05-21 19:30:00,
2013-05-21 15:35:00,86.0,71.5,29.83,SW,225,4.0,9.0,62,0.00,,,0.00,Wunderground v.1.13,2013-05-21 19:35:00,
2013-05-21 15:40:00,86.4,70.9,29.83,WSW,248,3.0,8.0,60,0.00,,,0.00,Wunderground v.1.13,2013-05-21 19:40:00,
2013-05-21 15:45:00,86.2,71.2,29.83,SW,225,5.0,10.0,61,0.00,,,0.00,Wunderground v.1.13,2013-05-21 19:45:00,
2013-05-21 15:50:00,85.9,70.9,29.82,SE,135,3.0,8.0,61,0.00,,,0.00,Wunderground v.1.13,2013-05-21 19:50:00,
2013-05-21 15:55:00,86.0,71.0,29.82,SE,135,3.0,11.0,61,0.00,,,0.00,Wunderground v.1.13,2013-05-21 19:55:00,
2013-05-21 16:00:00,86.5,71.0,29.82,SE,135,3.0,6.0,60,0.00,,,0.00,Wunderground v.1.13,2013-05-21 20:00:00,
2013-05-21 16:05:00,86.7,70.2,29.81,West,270,5.0,12.0,58,0.00,,,0.00,Wunderground v.1.13,2013-05-21 20:05:00,
2013-05-21 16:10:00,86.7,70.2,29.81,SE,135,2.0,7.0,58,0.00,,,0.00,Wunderground v.1.13,2013-05-21 20:10:00,
2013-05-21 16:15:00,86.7,71.2,29.81,SE,135,2.0,8.0,60,0.00,,,0.00,Wunderground v.1.13,2013-05-21 20:15:00,
2013-05-21 16:20:00,86.9,70.3,29.81,South,180,4.0,9.0,58,0.00,,,0.00,Wunderground v.1.13,2013-05-21 20:20:00,
2013-05-21 16:25:00,87.1,70.5,29.80,WSW,248,2.0,5.0,58,0.00,,,0.00,Wunderground v.1.13,2013-05-21 20:25:00,
2013-05-21 16:30:00,87.2,71.1,29.80,SW,225,3.0,7.0,59,0.00,,,0.00,Wunderground v.1.13,2013-05-21 20:30:00,
2013-05-21 16:35:00,87.1,70.5,29.81,SSW,203,5.0,12.0,58,0.00,,,0.00,Wunderground v.1.13,2013-05-21 20:35:00,
2013-05-21 16:40:00,86.8,69.7,29.80,WSW,248,4.0,11.0,57,0.00,,,0.00,Wunderground v.1.13,2013-05-21 20:40:00,
2013-05-21 16:45:00,86.8,70.2,29.80,SW,225,4.0,10.0,58,0.00,,,0.00,Wunderground v.1.13,2013-05-21 20:45:00,
2013-05-21 16:50:00,86.7,70.7,29.80,SE,135,2.0,8.0,59,0.00,,,0.00,Wunderground v.1.13,2013-05-21 20:50:00,
2013-05-21 16:55:00,86.5,70.5,29.79,SE,135,2.0,7.0,59,0.00,,,0.00,Wunderground v.1.13,2013-05-21 20:55:00,
2013-05-21 17:00:00,86.2,70.7,29.79,SE,135,5.0,10.0,60,0.00,,,0.00,Wunderground v.1.13,2013-05-21 21:00:00,
2013-05-21 17:05:00,86.3,70.3,29.80,WSW,248,5.0,14.0,59,0.00,,,0.00,Wunderground v.1.13,2013-05-21 21:05:00,
2013-05-21 17:10:00,86.4,70.4,29.80,SE,135,3.0,9.0,59,0.00,,,0.00,Wunderground v.1.13,2013-05-21 21:10:00,
2013-05-21 17:15:00,86.2,70.2,29.79,SE,135,3.0,10.0,59,0.00,,,0.00,Wunderground v.1.13,2013-05-21 21:15:00,
2013-05-21 17:20:00,86.1,71.6,29.79,SE,135,4.0,14.0,62,0.00,,,0.00,Wunderground v.1.13,2013-05-21 21:20:00,
2013-05-21 17:25:00,86.1,70.6,29.79,SE,135,4.0,15.0,60,0.00,,,0.00,Wunderground v.1.13,2013-05-21 21:25:00,
2013-05-21 17:30:00,86.6,71.1,29.79,West,270,3.0,9.0,60,0.00,,,0.00,Wunderground v.1.13,2013-05-21 21:30:00,
2013-05-21 17:35:00,86.6,70.6,29.79,SE,135,3.0,10.0,59,0.00,,,0.00,Wunderground v.1.13,2013-05-21 21:35:00,
2013-05-21 17:40:00,86.4,70.9,29.79,SSE,158,3.0,9.0,60,0.00,,,0.00,Wunderground v.1.13,2013-05-21 21:40:00,
2013-05-21 17:45:00,86.8,70.8,29.79,West,270,3.0,9.0,59,0.00,,,0.00,Wunderground v.1.13,2013-05-21 21:45:00,
2013-05-21 17:50:00,86.8,70.8,29.80,WSW,248,3.0,8.0,59,0.00,,,0.00,Wunderground v.1.13,2013-05-21 21:50:00,
2013-05-21 17:55:00,86.9,70.8,29.80,SE,135,2.0,7.0,59,0.00,,,0.00,Wunderground v.1.13,2013-05-21 21:55:00,
2013-05-21 18:00:00,86.5,70.5,29.79,SE,135,2.0,6.0,59,0.00,,,0.00,Wunderground v.1.13,2013-05-21 22:00:00,
2013-05-21 18:05:00,86.0,70.5,29.79,SE,135,3.0,8.0,60,0.00,,,0.00,Wunderground v.1.13,2013-05-21 22:05:00,
2013-05-21 18:10:00,85.7,70.7,29.79,SE,135,3.0,7.0,61,0.00,,,0.00,Wunderground v.1.13,2013-05-21 22:10:00,
2013-05-21 18:15:00,85.8,70.8,29.80,South,180,3.0,9.0,61,0.00,,,0.00,Wunderground v.1.13,2013-05-21 22:15:00,
2013-05-21 18:20:00,85.7,70.2,29.79,SW,225,3.0,10.0,60,0.00,,,0.00,Wunderground v.1.13,2013-05-21 22:20:00,
2013-05-21 18:25:00,85.7,70.2,29.79,West,270,3.0,7.0,60,0.00,,,0.00,Wunderground v.1.13,2013-05-21 22:25:00,
2013-05-21 18:30:00,85.7,70.7,29.79,SE,135,1.0,4.0,61,0.00,,,0.00,Wunderground v.1.13,2013-05-21 22:30:00,
2013-05-21 18:35:00,85.8,70.8,29.79,SSW,203,3.0,9.0,61,0.00,,,0.00,Wunderground v.1.13,2013-05-21 22:35:00,
2013-05-21 18:40:00,85.6,70.1,29.79,South,180,2.0,5.0,60,0.00,,,0.00,Wunderground v.1.13,2013-05-21 22:40:00,
2013-05-21 18:45:00,85.1,70.6,29.79,SE,135,2.0,6.0,62,0.00,,,0.00,Wunderground v.1.13,2013-05-21 22:45:00,
2013-05-21 18:50:00,84.9,70.4,29.79,SSW,203,3.0,8.0,62,0.00,,,0.00,Wunderground v.1.13,2013-05-21 22:50:00,
2013-05-21 18:55:00,84.8,70.3,29.79,SSW,203,3.0,11.0,62,0.00,,,0.00,Wunderground v.1.13,2013-05-21 22:55:00,
2013-05-21 19:00:00,84.7,70.7,29.79,West,270,2.0,6.0,63,0.00,,,0.00,Wunderground v.1.13,2013-05-21 23:00:00,
2013-05-21 19:05:00,84.5,70.5,29.79,SE,135,2.0,6.0,63,0.00,,,0.00,Wunderground v.1.13,2013-05-21 23:05:00,
2013-05-21 19:10:00,84.3,70.8,29.79,SSW,203,1.0,4.0,64,0.00,,,0.00,Wunderground v.1.13,2013-05-21 23:10:00,
2013-05-21 19:15:00,84.2,70.7,29.80,SE,135,2.0,5.0,64,0.00,,,0.00,Wunderground v.1.13,2013-05-21 23:15:00,
2013-05-21 19:20:00,84.1,70.6,29.79,SE,135,0.0,3.0,64,0.00,,,0.00,Wunderground v.1.13,2013-05-21 23:20:00,
2013-05-21 19:25:00,83.8,70.3,29.79,SE,135,1.0,7.0,64,0.00,,,0.00,Wunderground v.1.13,2013-05-21 23:25:00,
2013-05-21 19:30:00,83.8,70.3,29.79,SSW,203,1.0,3.0,64,0.00,,,0.00,Wunderground v.1.13,2013-05-21 23:30:00,
2013-05-21 19:35:00,83.7,70.7,29.79,WNW,293,1.0,2.0,65,0.00,,,0.00,Wunderground v.1.13,2013-05-21 23:35:00,
2013-05-21 19:40:00,83.6,70.6,29.79,WNW,293,1.0,3.0,65,0.00,,,0.00,Wunderground v.1.13,2013-05-21 23:40:00,
2013-05-21 19:45:00,83.4,70.4,29.79,WNW,293,0.0,2.0,65,0.00,,,0.00,Wunderground v.1.13,2013-05-21 23:45:00,
2013-05-21 19:50:00,83.2,70.7,29.79,South,180,1.0,2.0,66,0.00,,,0.00,Wunderground v.1.13,2013-05-21 23:50:00,
2013-05-21 19:55:00,83.0,70.5,29.79,South,180,0.0,1.0,66,0.00,,,0.00,Wunderground v.1.13,2013-05-21 23:55:00,
2013-05-21 20:00:00,82.9,70.4,29.79,South,180,0.0,1.0,66,0.00,,,0.00,Wunderground v.1.13,2013-05-22 00:00:00,
2013-05-21 20:05:00,82.7,70.6,29.80,South,180,0.0,1.0,67,0.00,,,0.00,Wunderground v.1.13,2013-05-22 00:05:00,
2013-05-21 20:10:00,82.5,70.4,29.80,N/A,-737280,0.0,0.0,67,0.00,,,0.00,Wunderground v.1.13,2013-05-22 00:10:00,
2013-05-21 20:15:00,82.2,70.6,29.80,South,180,0.0,1.0,68,0.00,,,0.00,Wunderground v.1.13,2013-05-22 00:15:00,
2013-05-21 20:20:00,81.7,69.7,29.80,South,180,1.0,3.0,67,0.00,,,0.00,Wunderground v.1.13,2013-05-22 00:20:00,
2013-05-21 20:25:00,81.4,69.8,29.80,South,180,0.0,1.0,68,0.00,,,0.00,Wunderground v.1.13,2013-05-22 00:25:00,
2013-05-21 20:30:00,81.1,70.0,29.80,South,180,0.0,1.0,69,0.00,,,0.00,Wunderground v.1.13,2013-05-22 00:30:00,
2013-05-21 20:35:00,80.9,69.8,29.80,N/A,-737280,0.0,0.0,69,0.00,,,0.00,Wunderground v.1.13,2013-05-22 00:35:00,
2013-05-21 20:40:00,80.6,69.5,29.80,South,180,0.0,1.0,69,0.00,,,0.00,Wunderground v.1.13,2013-05-22 00:40:00,
2013-05-21 20:45:00,80.3,69.6,29.80,South,180,0.0,1.0,70,0.00,,,0.00,Wunderground v.1.13,2013-05-22 00:45:00,
2013-05-21 20:50:00,80.0,69.7,29.80,N/A,-737280,0.0,0.0,71,0.00,,,0.00,Wunderground v.1.13,2013-05-22 00:50:00,
2013-05-21 20:55:00,79.6,69.8,29.79,N/A,-737280,0.0,0.0,72,0.00,,,0.00,Wunderground v.1.13,2013-05-22 00:55:00,
2013-05-21 21:00:00,79.1,69.3,29.79,N/A,-737280,0.0,0.0,72,0.00,,,0.00,Wunderground v.1.13,2013-05-22 01:00:00,
2013-05-21 21:05:00,78.7,69.3,29.79,N/A,-737280,0.0,0.0,73,0.00,,,0.00,Wunderground v.1.13,2013-05-22 01:05:00,
2013-05-21 21:10:00,78.3,69.3,29.80,South,180,0.0,1.0,74,0.00,,,0.00,Wunderground v.1.13,2013-05-22 01:10:00,
2013-05-21 21:15:00,77.9,69.3,29.80,N/A,-737280,0.0,0.0,75,0.00,,,0.00,Wunderground v.1.13,2013-05-22 01:15:00,
2013-05-21 21:20:00,77.4,69.6,29.80,South,180,0.0,1.0,77,0.00,,,0.00,Wunderground v.1.13,2013-05-22 01:20:00,
2013-05-21 21:25:00,76.9,69.1,29.81,South,180,0.0,1.0,77,0.00,,,0.00,Wunderground v.1.13,2013-05-22 01:25:00,
2013-05-21 21:30:00,76.5,69.1,29.81,N/A,-737280,0.0,0.0,78,0.00,,,0.00,Wunderground v.1.13,2013-05-22 01:30:00,
2013-05-21 21:35:00,76.1,68.7,29.81,N/A,-737280,0.0,0.0,78,0.00,,,0.00,Wunderground v.1.13,2013-05-22 01:35:00,
2013-05-21 21:40:00,75.8,68.4,29.81,N/A,-737280,0.0,0.0,78,0.00,,,0.00,Wunderground v.1.13,2013-05-22 01:40:00,
2013-05-21 21:45:00,75.6,69.0,29.82,South,180,0.0,1.0,80,0.00,,,0.00,Wunderground v.1.13,2013-05-22 01:45:00,
2013-05-21 21:50:00,75.3,68.7,29.82,N/A,-737280,0.0,0.0,80,0.00,,,0.00,Wunderground v.1.13,2013-05-22 01:50:00,
2013-05-21 21:55:00,75.1,68.9,29.82,N/A,-737280,0.0,0.0,81,0.00,,,0.00,Wunderground v.1.13,2013-05-22 01:55:00,
2013-05-21 22:00:00,74.9,68.7,29.82,South,180,0.0,1.0,81,0.00,,,0.00,Wunderground v.1.13,2013-05-22 02:00:00,
2013-05-21 22:05:00,74.5,68.3,29.82,South,180,0.0,1.0,81,0.00,,,0.00,Wunderground v.1.13,2013-05-22 02:05:00,
2013-05-21 22:10:00,74.3,68.4,29.82,N/A,-737280,0.0,0.0,82,0.00,,,0.00,Wunderground v.1.13,2013-05-22 02:10:00,
2013-05-21 22:15:00,74.2,68.3,29.82,South,180,0.0,1.0,82,0.00,,,0.00,Wunderground v.1.13,2013-05-22 02:15:00,
2013-05-21 22:20:00,74.2,68.3,29.83,South,180,0.0,2.0,82,0.00,,,0.00,Wunderground v.1.13,2013-05-22 02:20:00,
2013-05-21 22:25:00,74.4,68.5,29.83,South,180,1.0,3.0,82,0.00,,,0.00,Wunderground v.1.13,2013-05-22 02:25:00,
2013-05-21 22:30:00,74.8,68.6,29.83,West,270,1.0,4.0,81,0.00,,,0.00,Wunderground v.1.13,2013-05-22 02:30:00,
2013-05-21 22:35:00,74.9,68.3,29.82,West,270,1.0,2.0,80,0.00,,,0.00,Wunderground v.1.13,2013-05-22 02:35:00,
2013-05-21 22:40:00,74.7,68.8,29.83,SSW,203,1.0,4.0,82,0.00,,,0.00,Wunderground v.1.13,2013-05-22 02:40:00,
2013-05-21 22:45:00,74.4,68.5,29.83,SSW,203,0.0,1.0,82,0.00,,,0.00,Wunderground v.1.13,2013-05-22 02:45:00,
2013-05-21 22:50:00,74.2,68.7,29.83,N/A,-737280,0.0,0.0,83,0.00,,,0.00,Wunderground v.1.13,2013-05-22 02:50:00,
2013-05-21 22:55:00,74.0,68.2,29.83,SSW,203,0.0,1.0,82,0.00,,,0.00,Wunderground v.1.13,2013-05-22 02:55:00,
2013-05-21 23:00:00,73.9,68.4,29.83,SSW,203,0.0,1.0,83,0.00,,,0.00,Wunderground v.1.13,2013-05-22 03:00:00,
2013-05-21 23:05:00,73.9,68.8,29.83,SSW,203,0.0,1.0,84,0.00,,,0.00,Wunderground v.1.13,2013-05-22 03:05:00,
2013-05-21 23:10:00,73.7,68.6,29.83,SSW,203,1.0,3.0,84,0.00,,,0.00,Wunderground v.1.13,2013-05-22 03:10:00,
2013-05-21 23:15:00,73.4,68.6,29.83,SSW,203,0.0,1.0,85,0.00,,,0.00,Wunderground v.1.13,2013-05-22 03:15:00,
2013-05-21 23:20:00,73.0,68.2,29.83,NE,45,0.0,3.0,85,0.00,,,0.00,Wunderground v.1.13,2013-05-22 03:20:00,
2013-05-21 23:25:00,72.5,67.4,29.83,NE,45,2.0,3.0,84,0.00,,,0.00,Wunderground v.1.13,2013-05-22 03:25:00,
2013-05-21 23:30:00,72.1,67.0,29.83,NE,45,2.0,3.0,84,0.00,,,0.00,Wunderground v.1.13,2013-05-22 03:30:00,
2013-05-21 23:35:00,72.0,67.2,29.83,NE,45,1.0,3.0,85,0.00,,,0.00,Wunderground v.1.13,2013-05-22 03:35:00,
2013-05-21 23:40:00,71.9,67.5,29.83,N/A,-737280,0.0,0.0,86,0.00,,,0.00,Wunderground v.1.13,2013-05-22 03:40:00,
2013-05-21 23:45:00,71.8,67.0,29.83,N/A,-737280,0.0,0.0,85,0.00,,,0.00,Wunderground v.1.13,2013-05-22 03:45:00,
2013-05-21 23:50:00,71.7,67.3,29.83,NE,45,0.0,1.0,86,0.00,,,0.00,Wunderground v.1.13,2013-05-22 03:50:00,
2013-05-21 23:55:00,71.6,67.2,29.83,N/A,-737280,0.0,0.0,86,0.00,,,0.00,Wunderground v.1.13,2013-05-22 03:55:00,